IDT,Max TemperatureF,Mean TemperatureF,Min TemperatureF,Max Dew PointF,MeanDew PointF,Min DewpointF,Max Humidity, Mean Humidity, Min Humidity, Max Sea Level PressureIn, Mean Sea Level PressureIn, Min Sea Level PressureIn, Max VisibilityMiles, Mean VisibilityMiles, Min VisibilityMiles, Max Wind SpeedMPH, Mean Wind SpeedMPH, Max Gust SpeedMPH,PrecipitationIn, CloudCover, Events, WindDirDegrees
2013-5-1,89,77,65,64,54,41,78,48,24,29.89,29.83,29.77,6,5,4,12,4,,0.00,0,,252
2013-5-2,85,76,66,63,59,50,83,60,26,29.83,29.79,29.77,6,5,4,12,5,,0.00,1,,253
2013-5-3,82,72,61,63,60,55,94,71,42,29.83,29.79,29.74,6,3,0,12,4,,0.00,2,Fog,285
2013-5-4,88,72,57,63,53,41,78,47,17,29.89,29.84,29.80,6,4,3,15,5,,0.00,0,,320
2013-5-5,85,73,61,64,54,43,78,49,23,29.92,29.88,29.86,6,6,5,13,5,,0.00,1,,286
2013-5-6,82,72,63,64,61,55,88,68,40,29.92,29.87,29.83,6,4,1,13,5,,0.00,3,,304
2013-5-7,81,72,64,64,63,61,94,73,47,29.89,29.86,29.83,6,4,1,13,5,,0.00,2,Fog,262
2013-5-8,85,74,64,66,61,48,94,69,29,29.88,29.83,29.80,6,2,0,13,5,,0.00,6,Fog,262
2013-5-9,82,75,68,65,63,59,83,69,46,29.89,29.84,29.80,6,5,3,15,6,,0.00,4,,269
2013-5-10,83,74,64,66,64,55,88,69,42,29.87,29.83,29.77,6,6,3,17,6,,0.00,2,,320
2013-5-11,81,74,67,64,60,52,83,63,43,29.87,29.85,29.83,6,6,4,13,6,,0.00,2,,262
2013-5-12,79,72,64,61,56,54,73,60,40,29.92,29.86,29.83,6,6,6,16,5,,0.00,2,,280
2013-5-13,85,74,64,63,53,43,78,52,14,29.90,29.81,29.68,6,6,5,15,6,,0.04,3,Rain-Thunderstorm,213
2013-5-14,78,71,64,61,55,46,78,59,31,29.83,29.80,29.77,6,6,5,18,8,,0.00,2,,243
2013-5-15,77,70,62,59,55,50,83,61,35,29.92,29.84,29.77,6,6,4,12,7,,0.00,2,Rain,234
2013-5-16,77,70,62,61,58,54,78,66,40,30.04,29.97,29.92,6,6,6,14,5,,0.00,2,Rain,292
2013-5-17,83,74,64,63,60,57,78,66,42,30.06,30.03,30.01,6,6,6,17,5,,0.00,2,,356
2013-5-18,89,76,63,64,60,54,83,61,31,30.06,29.99,29.95,6,6,6,18,6,,0.00,3,,356
2013-5-19,89,78,66,66,55,45,78,50,14,29.95,29.88,29.80,6,6,4,14,5,,0.00,8,,316
2013-5-20,80,74,67,64,59,52,78,60,44,29.86,29.80,29.77,6,6,6,13,6,,0.00,1,,260
2013-5-21,85,77,69,66,62,57,83,64,43,29.89,29.85,29.83,6,6,6,14,6,,0.00,2,,232
2013-5-22,90,78,66,63,58,52,73,52,22,29.92,29.89,29.86,6,6,6,16,5,,0.00,,,311
2013-5-23,91,78,64,66,60,52,73,56,31,29.92,29.87,29.83,6,6,6,16,5,,0.00,,,327
2013-5-24,92,79,66,68,63,54,94,64,28,29.89,29.86,29.83,6,4,0,16,6,,0.00,2,Fog,276
2013-5-25,85,78,71,68,63,57,78,63,44,29.95,29.92,29.89,6,6,6,14,6,,0.00,2,,294
2013-5-26,80,74,67,61,58,54,78,59,33,29.96,29.94,29.92,6,6,6,14,5,,0.00,3,,280
2013-5-27,83,74,65,64,60,57,78,62,38,30.01,29.95,29.92,6,6,6,14,7,,0.00,3,,221
2013-5-28,84,76,68,64,59,48,83,60,22,30.01,29.98,29.95,6,6,6,15,8,,0.00,3,,225
2013-5-29,95,79,63,61,46,27,73,35,9,29.98,29.90,29.77,6,6,6,12,4,,0.00,,,344
2013-5-30,103,86,69,68,56,30,74,50,7,29.83,29.75,29.68,6,5,3,23,7,32,0.00,4,,228
2013-5-31,87,78,69,64,62,57,83,59,40,29.84,29.80,29.77,6,5,3,13,6,,0.00,2,,238